,,,PA_Meas_PMT16A,,PR_Meas_QMR101_102,,RH_Meas_QMH101,,SR_Meas_QMS101,,TA_Meas_QMH101,,GenWind,,GenWind,
date,time,status,PA,status,PR,status,RH,status,SR,status,TA,status,DirAvg,status,SpdAvg,
2008-04-30, 00:00:04,VALID,1009.12,VALID,0,VALID,93.9722,VALID,0,VALID,23.5576,VALID,93,VALID,0.726953,
2008-04-30, 00:01:04,VALID,1009.08,VALID,0,VALID,93.6976,VALID,0.105969,VALID,23.5363,VALID,80,VALID,0.849219,
2008-04-30, 00:02:04,VALID,1009.08,VALID,0,VALID,93.6824,VALID,0.105969,VALID,23.5771,VALID,71,VALID,0.764453,
2008-04-30, 00:03:04,VALID,1009.02,VALID,0,VALID,93.6671,VALID,0,VALID,23.5771,VALID,78,VALID,0.723828,
2008-04-30, 00:04:04,VALID,1009.03,VALID,0,VALID,93.629,VALID,0.105969,VALID,23.5558,VALID,62,VALID,0.573828,
2008-04-30, 00:05:04,VALID,1009.05,VALID,0,VALID,93.6061,VALID,0,VALID,23.5966,VALID,52,VALID,0.429688,
2008-04-30, 00:06:04,VALID,1009.04,VALID,0,VALID,93.5451,VALID,0.105969,VALID,23.5363,VALID,32,VALID,0.470313,
2008-04-30, 00:07:04,VALID,1009.05,VALID,0,VALID,93.7205,VALID,0.105969,VALID,23.5381,VALID,6,VALID,0.503516,
2008-04-30, 00:08:04,VALID,1009.09,VALID,0,VALID,93.7891,VALID,0.105969,VALID,23.5169,VALID,359,VALID,0.319141,
2008-04-30, 00:09:04,VALID,1009.06,VALID,0,VALID,93.873,VALID,0.105969,VALID,23.5381,VALID,350,VALID,0.314844,
2008-04-30, 00:10:04,VALID,1009.05,VALID,0,VALID,93.8578,VALID,0.105969,VALID,23.4779,VALID,346,VALID,0.34375,
2008-04-30, 00:11:04,VALID,1009.05,VALID,0,VALID,93.9188,VALID,0.105969,VALID,23.4992,VALID,346,VALID,0.221484,
2008-04-30, 00:12:04,VALID,1008.98,VALID,0,VALID,94.0103,VALID,0,VALID,23.4797,VALID,346,VALID,0.194922,
2008-04-30, 00:13:04,VALID,1009,VALID,0,VALID,94.1323,VALID,0.105969,VALID,23.4602,VALID,346,VALID,0.209766,
2008-04-30, 00:14:04,VALID,1008.96,VALID,0,VALID,94.2009,VALID,0.105969,VALID,23.4389,VALID,346,VALID,0.133984,
2008-04-30, 00:15:04,VALID,1008.96,VALID,0,VALID,94.2924,VALID,0.105969,VALID,23.4407,VALID,346,VALID,0.0746094,
2008-04-30, 00:16:04,VALID,1008.96,VALID,0,VALID,94.3839,VALID,0.105969,VALID,23.4,VALID,346,VALID,0,
2008-04-30, 00:17:04,VALID,1008.98,VALID,0,VALID,94.4221,VALID,0,VALID,23.4017,VALID,346,VALID,0.169531,
2008-04-30, 00:18:04,VALID,1008.96,VALID,0,VALID,94.4983,VALID,0,VALID,23.3823,VALID,346,VALID,0.245703,
2008-04-30, 00:19:04,VALID,1008.97,VALID,0,VALID,94.5746,VALID,0.105969,VALID,23.3628,VALID,351,VALID,0.378906,
2008-04-30, 00:20:04,VALID,1008.94,VALID,0,VALID,94.6661,VALID,0.105969,VALID,23.3433,VALID,84,VALID,0.553516,
2008-04-30, 00:21:04,VALID,1008.92,VALID,0,VALID,94.7347,VALID,0.105969,VALID,23.322,VALID,87,VALID,0.611328,
2008-04-30, 00:22:04,VALID,1008.93,VALID,0,VALID,94.7424,VALID,0.105969,VALID,23.3433,VALID,75,VALID,0.684766,
2008-04-30, 00:23:04,VALID,1008.95,VALID,0,VALID,94.7805,VALID,0,VALID,23.3433,VALID,66,VALID,0.576953,
2008-04-30, 00:24:04,VALID,1008.95,VALID,0,VALID,94.811,VALID,0.105969,VALID,23.322,VALID,53,VALID,0.493359,
2008-04-30, 00:25:04,VALID,1008.93,VALID,0,VALID,94.8034,VALID,0,VALID,23.3238,VALID,46,VALID,0.152734,
2008-04-30, 00:26:04,VALID,1008.95,VALID,0,VALID,94.8568,VALID,0.105969,VALID,23.3026,VALID,46,VALID,0.0976563,
2008-04-30, 00:27:04,VALID,1008.94,VALID,0,VALID,94.8949,VALID,0,VALID,23.3238,VALID,36,VALID,0.0292969,
2008-04-30, 00:28:04,VALID,1008.95,VALID,0,VALID,94.8949,VALID,0.105969,VALID,23.2831,VALID,31,VALID,0.197656,
2008-04-30, 00:29:04,VALID,1008.94,VALID,0,VALID,94.9406,VALID,0,VALID,23.3043,VALID,17,VALID,0.0226563,
2008-04-30, 00:30:04,VALID,1008.9,VALID,0,VALID,94.9483,VALID,0,VALID,23.2848,VALID,18,VALID,0.211328,
2008-04-30, 00:31:04,VALID,1008.9,VALID,0,VALID,94.9788,VALID,0.105969,VALID,23.2848,VALID,18,VALID,0.214062,
2008-04-30, 00:32:04,VALID,1008.9,VALID,0,VALID,94.9788,VALID,0.105969,VALID,23.2848,VALID,19,VALID,0.250781,
2008-04-30, 00:33:04,VALID,1008.87,VALID,0,VALID,95.0093,VALID,0,VALID,23.2441,VALID,20,VALID,0.0195313,
2008-04-30, 00:34:04,VALID,1008.85,VALID,0,VALID,95.0169,VALID,0.105969,VALID,23.2848,VALID,23,VALID,0.248828,
2008-04-30, 00:35:04,VALID,1008.82,VALID,0,VALID,95.0169,VALID,0.105969,VALID,23.2459,VALID,23,VALID,0.158594,
2008-04-30, 00:36:04,VALID,1008.85,VALID,0,VALID,95.0321,VALID,0.105969,VALID,23.2441,VALID,23,VALID,0.140625,
2008-04-30, 00:37:04,VALID,1008.79,VALID,0,VALID,95.0398,VALID,0,VALID,23.2459,VALID,23,VALID,0,
2008-04-30, 00:38:04,VALID,1008.77,VALID,0,VALID,95.0321,VALID,0,VALID,23.2459,VALID,23,VALID,0,
2008-04-30, 00:39:04,VALID,1008.75,VALID,0,VALID,95.0779,VALID,0,VALID,23.2654,VALID,23,VALID,0,
2008-04-30, 00:40:04,VALID,1008.74,VALID,0,VALID,95.0855,VALID,0,VALID,23.2459,VALID,23,VALID,0,
2008-04-30, 00:41:04,VALID,1008.72,VALID,0,VALID,95.116,VALID,0,VALID,23.2671,VALID,23,VALID,0.204688,
2008-04-30, 00:42:04,VALID,1008.69,VALID,0,VALID,95.116,VALID,0.105969,VALID,23.2246,VALID,23,VALID,0.2375,
2008-04-30, 00:43:04,VALID,1008.68,VALID,0,VALID,95.1618,VALID,0.105969,VALID,23.2459,VALID,23,VALID,0.105469,
2008-04-30, 00:44:04,VALID,1008.67,VALID,0,VALID,95.1465,VALID,0,VALID,23.2459,VALID,23,VALID,0.000390625,
2008-04-30, 00:45:04,VALID,1008.66,VALID,0,VALID,95.1465,VALID,0.105969,VALID,23.2459,VALID,23,VALID,0.000390625,
2008-04-30, 00:46:04,VALID,1008.66,VALID,0,VALID,95.1542,VALID,0,VALID,23.2459,VALID,23,VALID,0.121875,
2008-04-30, 00:47:04,VALID,1008.65,VALID,0,VALID,95.1694,VALID,0,VALID,23.2459,VALID,23,VALID,0.00351562,
2008-04-30, 00:48:04,VALID,1008.64,VALID,0,VALID,95.1999,VALID,0.105969,VALID,23.2459,VALID,23,VALID,0,
2008-04-30, 00:49:04,VALID,1008.64,VALID,0,VALID,95.2152,VALID,0.105969,VALID,23.2459,VALID,23,VALID,0,
2008-04-30, 00:50:04,VALID,1008.61,VALID,0,VALID,95.238,VALID,0.105969,VALID,23.2459,VALID,23,VALID,0.0523437,
2008-04-30, 00:51:04,VALID,1008.59,VALID,0,VALID,95.1999,VALID,0.105969,VALID,23.2264,VALID,23,VALID,0.208203,
2008-04-30, 00:52:04,VALID,1008.57,VALID,0,VALID,95.2457,VALID,0.105969,VALID,23.2459,VALID,23,VALID,0.191406,
2008-04-30, 00:53:04,VALID,1008.56,VALID,0,VALID,95.2838,VALID,0.105969,VALID,23.2459,VALID,23,VALID,0.238672,
2008-04-30, 00:54:04,VALID,1008.51,VALID,0,VALID,95.2838,VALID,0.105969,VALID,23.2264,VALID,30,VALID,0.329688,
2008-04-30, 00:55:04,VALID,1008.51,VALID,0,VALID,95.2609,VALID,0.105969,VALID,23.2069,VALID,31,VALID,0.144141,
2008-04-30, 00:56:04,VALID,1008.49,VALID,0,VALID,95.2685,VALID,0,VALID,23.2264,VALID,31,VALID,0.00195313,
2008-04-30, 00:57:04,VALID,1008.44,VALID,0,VALID,95.2914,VALID,0,VALID,23.2069,VALID,31,VALID,0,
2008-04-30, 00:58:04,VALID,1008.4,VALID,0,VALID,95.299,VALID,0,VALID,23.2282,VALID,31,VALID,0,
2008-04-30, 00:59:04,VALID,1008.43,VALID,0,VALID,95.3067,VALID,0,VALID,23.2069,VALID,31,VALID,0,
2008-04-30, 01:00:04,VALID,1008.42,VALID,0,VALID,95.3067,VALID,0,VALID,23.2069,VALID,31,VALID,0,
2008-04-30, 01:01:04,VALID,1008.42,VALID,0,VALID,95.3067,VALID,0,VALID,23.2282,VALID,31,VALID,0,
2008-04-30, 01:02:04,VALID,1008.41,VALID,0,VALID,95.3295,VALID,0,VALID,23.2282,VALID,31,VALID,0,
2008-04-30, 01:03:04,VALID,1008.36,VALID,0,VALID,95.3372,VALID,0,VALID,23.2264,VALID,31,VALID,0,
2008-04-30, 01:04:04,VALID,1008.37,VALID,0,VALID,95.36,VALID,0,VALID,23.2264,VALID,31,VALID,0,
2008-04-30, 01:05:04,VALID,1008.37,VALID,0,VALID,95.3677,VALID,0,VALID,23.2459,VALID,31,VALID,0,
2008-04-30, 01:06:04,VALID,1008.33,VALID,0,VALID,95.3677,VALID,0,VALID,23.2476,VALID,31,VALID,0,
2008-04-30, 01:07:04,VALID,1008.33,VALID,0,VALID,95.36,VALID,0,VALID,23.2264,VALID,31,VALID,0.132031,
2008-04-30, 01:08:04,VALID,1008.32,VALID,0,VALID,95.36,VALID,0,VALID,23.2476,VALID,31,VALID,0,
2008-04-30, 01:09:04,VALID,1008.3,VALID,0,VALID,95.3448,VALID,0,VALID,23.2069,VALID,31,VALID,0,
2008-04-30, 01:10:04,VALID,1008.3,VALID,0,VALID,95.3524,VALID,0,VALID,23.2282,VALID,31,VALID,0,
2008-04-30, 01:11:04,VALID,1008.28,VALID,0,VALID,95.3448,VALID,0,VALID,23.1679,VALID,31,VALID,0,
2008-04-30, 01:12:04,VALID,1008.26,VALID,0,VALID,95.3143,VALID,0,VALID,23.1874,VALID,31,VALID,0,
2008-04-30, 01:13:04,VALID,1008.24,VALID,0,VALID,95.3219,VALID,0,VALID,23.1874,VALID,31,VALID,0,
2008-04-30, 01:14:04,VALID,1008.23,VALID,0,VALID,95.3524,VALID,0,VALID,23.2087,VALID,31,VALID,0,
2008-04-30, 01:15:04,VALID,1008.24,VALID,0,VALID,95.3829,VALID,0,VALID,23.2069,VALID,31,VALID,0,
2008-04-30, 01:16:04,VALID,1008.25,VALID,0,VALID,95.3905,VALID,0,VALID,23.1874,VALID,31,VALID,0,
2008-04-30, 01:17:04,VALID,1008.24,VALID,0,VALID,95.3753,VALID,0,VALID,23.1874,VALID,31,VALID,0,
2008-04-30, 01:18:04,VALID,1008.23,VALID,0,VALID,95.3982,VALID,0,VALID,23.2282,VALID,31,VALID,0.00664063,
2008-04-30, 01:19:04,VALID,1008.24,VALID,0,VALID,95.4211,VALID,0,VALID,23.2069,VALID,31,VALID,0.225391,
2008-04-30, 01:20:04,VALID,1008.28,VALID,0,VALID,95.3905,VALID,0,VALID,23.2069,VALID,31,VALID,0.258984,
2008-04-30, 01:21:04,VALID,1008.29,VALID,0,VALID,95.3677,VALID,0,VALID,23.2069,VALID,31,VALID,0.341797,
2008-04-30, 01:22:04,VALID,1008.31,VALID,0,VALID,95.3677,VALID,0,VALID,23.1874,VALID,31,VALID,0.292188,
2008-04-30, 01:23:04,VALID,1008.34,VALID,0,VALID,95.3677,VALID,0,VALID,23.1874,VALID,31,VALID,0.0546875,
2008-04-30, 01:24:04,VALID,1008.34,VALID,0,VALID,95.4058,VALID,0,VALID,23.1679,VALID,31,VALID,0,
2008-04-30, 01:25:04,VALID,1008.33,VALID,0,VALID,95.4058,VALID,0,VALID,23.1874,VALID,31,VALID,0,
2008-04-30, 01:26:04,VALID,1008.31,VALID,0,VALID,95.3982,VALID,0,VALID,23.1892,VALID,31,VALID,0,
2008-04-30, 01:27:04,VALID,1008.3,VALID,0,VALID,95.4134,VALID,0,VALID,23.1874,VALID,31,VALID,0,
2008-04-30, 01:28:04,VALID,1008.29,VALID,0,VALID,95.4439,VALID,0,VALID,23.2087,VALID,31,VALID,0,
2008-04-30, 01:29:04,VALID,1008.29,VALID,0,VALID,95.4363,VALID,0,VALID,23.2069,VALID,31,VALID,0.111719,
2008-04-30, 01:30:04,VALID,1008.23,VALID,0,VALID,95.4668,VALID,0,VALID,23.2069,VALID,31,VALID,0.00742187,
2008-04-30, 01:31:04,VALID,1008.24,VALID,0,VALID,95.4516,VALID,0,VALID,23.2476,VALID,31,VALID,0.313281,
2008-04-30, 01:32:04,VALID,1008.21,VALID,0,VALID,95.4592,VALID,0,VALID,23.2264,VALID,77,VALID,0.262109,
2008-04-30, 01:33:04,VALID,1008.21,VALID,0,VALID,95.4516,VALID,0,VALID,23.2671,VALID,141,VALID,0.469141,
2008-04-30, 01:34:04,VALID,1008.22,VALID,0,VALID,95.3982,VALID,0,VALID,23.2264,VALID,141,VALID,0.443359,
2008-04-30, 01:35:04,VALID,1008.21,VALID,0,VALID,95.3905,VALID,0,VALID,23.2069,VALID,141,VALID,0.408203,
2008-04-30, 01:36:04,VALID,1008.24,VALID,0,VALID,95.4287,VALID,0,VALID,23.2264,VALID,141,VALID,0.380859,
2008-04-30, 01:37:04,VALID,1008.23,VALID,0,VALID,95.4287,VALID,0,VALID,23.2476,VALID,141,VALID,0.502734,
2008-04-30, 01:38:04,VALID,1008.2,VALID,0,VALID,95.4211,VALID,0,VALID,23.2264,VALID,141,VALID,0.590234,
2008-04-30, 01:39:04,VALID,1008.19,VALID,0,VALID,95.4516,VALID,0,VALID,23.2264,VALID,140,VALID,0.709766,
2008-04-30, 01:40:04,VALID,1008.17,VALID,0,VALID,95.4592,VALID,0,VALID,23.2654,VALID,138,VALID,0.578516,
2008-04-30, 01:41:04,VALID,1008.17,VALID,0,VALID,95.4744,VALID,0,VALID,23.2671,VALID,138,VALID,0.385547,
2008-04-30, 01:42:04,VALID,1008.14,VALID,0,VALID,95.4744,VALID,0,VALID,23.2459,VALID,138,VALID,0.325781,
2008-04-30, 01:43:04,VALID,1008.17,VALID,0,VALID,95.4821,VALID,0,VALID,23.2654,VALID,138,VALID,0.322656,
2008-04-30, 01:44:04,VALID,1008.14,VALID,0,VALID,95.4668,VALID,0,VALID,23.2459,VALID,153,VALID,0.45,
2008-04-30, 01:45:04,VALID,1008.16,VALID,0,VALID,95.4516,VALID,0,VALID,23.2459,VALID,169,VALID,0.426172,
2008-04-30, 01:46:04,VALID,1008.16,VALID,0,VALID,95.4439,VALID,0,VALID,23.2654,VALID,169,VALID,0.162891,
2008-04-30, 01:47:04,VALID,1008.15,VALID,0,VALID,95.4668,VALID,0,VALID,23.2866,VALID,170,VALID,0.10625,
2008-04-30, 01:48:04,VALID,1008.13,VALID,0,VALID,95.4363,VALID,0,VALID,23.2671,VALID,170,VALID,0,
2008-04-30, 01:49:04,VALID,1008.13,VALID,0,VALID,95.4287,VALID,0,VALID,23.2671,VALID,170,VALID,0.107422,
2008-04-30, 01:50:04,VALID,1008.08,VALID,0,VALID,95.4211,VALID,0,VALID,23.2459,VALID,170,VALID,0,
2008-04-30, 01:51:04,VALID,1008.1,VALID,0,VALID,95.4363,VALID,0,VALID,23.2459,VALID,170,VALID,0.0527344,
2008-04-30, 01:52:04,VALID,1008.1,VALID,0,VALID,95.4287,VALID,0,VALID,23.2671,VALID,170,VALID,0,
2008-04-30, 01:53:04,VALID,1008.08,VALID,0,VALID,95.4287,VALID,0,VALID,23.2282,VALID,170,VALID,0,
2008-04-30, 01:54:04,VALID,1008.09,VALID,0,VALID,95.4287,VALID,0,VALID,23.2459,VALID,170,VALID,0,
2008-04-30, 01:55:04,VALID,1008.07,VALID,0,VALID,95.4363,VALID,0,VALID,23.2459,VALID,170,VALID,0.0691406,
2008-04-30, 01:56:04,VALID,1008.06,VALID,0,VALID,95.4973,VALID,0,VALID,23.2866,VALID,169,VALID,0.2625,
2008-04-30, 01:57:04,VALID,1008.03,VALID,0,VALID,95.4592,VALID,0,VALID,23.2654,VALID,170,VALID,0.371484,
2008-04-30, 01:58:04,VALID,1008.04,VALID,0,VALID,95.4211,VALID,0,VALID,23.2459,VALID,169,VALID,0.371484,
2008-04-30, 01:59:04,VALID,1008,VALID,0,VALID,95.4668,VALID,0,VALID,23.2459,VALID,169,VALID,0.225781,
2008-04-30, 02:00:04,VALID,1007.99,VALID,0,VALID,95.4592,VALID,0,VALID,23.2459,VALID,169,VALID,0.294531,
2008-04-30, 02:01:04,VALID,1007.99,VALID,0,VALID,95.4516,VALID,0,VALID,23.2264,VALID,119,VALID,0.383203,
2008-04-30, 02:02:04,VALID,1007.94,VALID,0,VALID,95.4439,VALID,0.105969,VALID,23.2069,VALID,86,VALID,0.348047,
2008-04-30, 02:03:04,VALID,1007.94,VALID,0,VALID,95.4592,VALID,0,VALID,23.2264,VALID,86,VALID,0.256641,
2008-04-30, 02:04:04,VALID,1007.9,VALID,0,VALID,95.4821,VALID,0,VALID,23.1857,VALID,86,VALID,0.507422,
2008-04-30, 02:05:04,VALID,1007.88,VALID,0,VALID,95.5126,VALID,0.105969,VALID,23.2264,VALID,86,VALID,0.469141,
2008-04-30, 02:06:04,VALID,1007.85,VALID,0,VALID,95.5583,VALID,0,VALID,23.2476,VALID,88,VALID,0.280859,
2008-04-30, 02:07:04,VALID,1007.83,VALID,0,VALID,95.6041,VALID,0,VALID,23.3061,VALID,91,VALID,0.353125,
2008-04-30, 02:08:04,VALID,1007.83,VALID,0,VALID,95.5659,VALID,0,VALID,23.2654,VALID,93,VALID,0.619531,
2008-04-30, 02:09:04,VALID,1007.81,VALID,0,VALID,95.5049,VALID,0,VALID,23.2654,VALID,93,VALID,0.516016,
2008-04-30, 02:10:04,VALID,1007.78,VALID,0,VALID,95.4668,VALID,0,VALID,23.3043,VALID,109,VALID,0.482422,
2008-04-30, 02:11:04,VALID,1007.78,VALID,0,VALID,95.4516,VALID,0,VALID,23.2848,VALID,109,VALID,0.499219,
2008-04-30, 02:12:04,VALID,1007.77,VALID,0,VALID,95.4134,VALID,0,VALID,23.3061,VALID,110,VALID,0.285547,
2008-04-30, 02:13:04,VALID,1007.79,VALID,0,VALID,95.4058,VALID,0,VALID,23.3256,VALID,109,VALID,0.311719,
2008-04-30, 02:14:04,VALID,1007.8,VALID,0,VALID,95.4211,VALID,0,VALID,23.3433,VALID,126,VALID,0.257031,
2008-04-30, 02:15:04,VALID,1007.81,VALID,0,VALID,95.4134,VALID,0,VALID,23.3628,VALID,126,VALID,0.432813,
2008-04-30, 02:16:04,VALID,1007.84,VALID,0,VALID,95.3829,VALID,0,VALID,23.3823,VALID,126,VALID,0.319141,
2008-04-30, 02:17:04,VALID,1007.85,VALID,0,VALID,95.2914,VALID,0,VALID,23.4017,VALID,150,VALID,0.441406,
2008-04-30, 02:18:04,VALID,1007.87,VALID,0,VALID,95.1847,VALID,0,VALID,23.4017,VALID,167,VALID,0.545703,
2008-04-30, 02:19:04,VALID,1007.85,VALID,0,VALID,95.1236,VALID,0,VALID,23.4035,VALID,167,VALID,0.355078,
2008-04-30, 02:20:04,VALID,1007.86,VALID,0,VALID,95.1542,VALID,0,VALID,23.4212,VALID,166,VALID,0.248047,
2008-04-30, 02:21:04,VALID,1007.86,VALID,0,VALID,95.0703,VALID,0,VALID,23.3823,VALID,165,VALID,0.540625,
2008-04-30, 02:22:04,VALID,1007.85,VALID,0,VALID,95.0474,VALID,0,VALID,23.3823,VALID,143,VALID,0.784375,
2008-04-30, 02:23:04,VALID,1007.81,VALID,0,VALID,94.9864,VALID,0,VALID,23.4017,VALID,142,VALID,0.626562,
2008-04-30, 02:24:04,VALID,1007.77,VALID,0,VALID,94.9711,VALID,0,VALID,23.4035,VALID,156,VALID,0.682422,
2008-04-30, 02:25:04,VALID,1007.76,VALID,0,VALID,94.9254,VALID,0,VALID,23.4017,VALID,152,VALID,0.657812,
2008-04-30, 02:26:04,VALID,1007.76,VALID,0,VALID,94.9406,VALID,0,VALID,23.4212,VALID,152,VALID,0.375,
2008-04-30, 02:27:04,VALID,1007.75,VALID,0,VALID,94.9483,VALID,0,VALID,23.4017,VALID,151,VALID,0.335938,
2008-04-30, 02:28:04,VALID,1007.73,VALID,0,VALID,94.9483,VALID,0,VALID,23.4017,VALID,151,VALID,0.0105469,
2008-04-30, 02:29:04,VALID,1007.69,VALID,0,VALID,94.9483,VALID,0,VALID,23.4017,VALID,151,VALID,0,
2008-04-30, 02:30:04,VALID,1007.71,VALID,0,VALID,94.9483,VALID,0,VALID,23.4017,VALID,151,VALID,0.184766,
2008-04-30, 02:31:04,VALID,1007.65,VALID,0,VALID,94.9635,VALID,0,VALID,23.423,VALID,151,VALID,0.148828,
2008-04-30, 02:32:04,VALID,1007.64,VALID,0,VALID,94.8949,VALID,0,VALID,23.4017,VALID,151,VALID,0.250391,
2008-04-30, 02:33:04,VALID,1007.6,VALID,0,VALID,94.8644,VALID,0,VALID,23.384,VALID,151,VALID,0.247266,
2008-04-30, 02:34:04,VALID,1007.57,VALID,0,VALID,94.8796,VALID,0,VALID,23.3823,VALID,151,VALID,0.313672,
2008-04-30, 02:35:04,VALID,1007.58,VALID,0,VALID,94.8644,VALID,0,VALID,23.4212,VALID,151,VALID,0.358594,
2008-04-30, 02:36:04,VALID,1007.58,VALID,0,VALID,94.8568,VALID,0,VALID,23.4017,VALID,151,VALID,0.373437,
2008-04-30, 02:37:04,VALID,1007.56,VALID,0,VALID,94.8339,VALID,0,VALID,23.4017,VALID,151,VALID,0.296484,
2008-04-30, 02:38:04,VALID,1007.55,VALID,0,VALID,94.8034,VALID,0,VALID,23.3823,VALID,151,VALID,0.375781,
2008-04-30, 02:39:04,VALID,1007.56,VALID,0,VALID,94.8415,VALID,0,VALID,23.4035,VALID,151,VALID,0.241406,
2008-04-30, 02:40:04,VALID,1007.56,VALID,0,VALID,94.8415,VALID,0,VALID,23.3823,VALID,151,VALID,0.327734,
2008-04-30, 02:41:04,VALID,1007.54,VALID,0,VALID,94.872,VALID,0,VALID,23.4017,VALID,151,VALID,0.282031,
2008-04-30, 02:42:04,VALID,1007.53,VALID,0,VALID,94.8415,VALID,0,VALID,23.4035,VALID,151,VALID,0.249609,
2008-04-30, 02:43:04,VALID,1007.5,VALID,0,VALID,94.8415,VALID,0,VALID,23.4017,VALID,151,VALID,0.164063,
2008-04-30, 02:44:04,VALID,1007.49,VALID,0,VALID,94.8415,VALID,0,VALID,23.423,VALID,151,VALID,0.287109,
2008-04-30, 02:45:04,VALID,1007.49,VALID,0,VALID,94.8568,VALID,0,VALID,23.423,VALID,151,VALID,0.447266,
2008-04-30, 02:46:04,VALID,1007.5,VALID,0,VALID,94.75,VALID,0,VALID,23.423,VALID,132,VALID,0.759766,
2008-04-30, 02:47:04,VALID,1007.49,VALID,0,VALID,94.8491,VALID,0,VALID,23.4407,VALID,134,VALID,0.731641,
2008-04-30, 02:48:04,VALID,1007.52,VALID,0,VALID,94.7957,VALID,0,VALID,23.4407,VALID,142,VALID,0.832812,
2008-04-30, 02:49:04,VALID,1007.53,VALID,0,VALID,94.75,VALID,0,VALID,23.4602,VALID,149,VALID,0.706641,
2008-04-30, 02:50:04,VALID,1007.51,VALID,0,VALID,94.7119,VALID,0,VALID,23.4407,VALID,161,VALID,0.729297,
2008-04-30, 02:51:04,VALID,1007.52,VALID,0,VALID,94.7576,VALID,0,VALID,23.462,VALID,160,VALID,0.569141,
2008-04-30, 02:52:04,VALID,1007.46,VALID,0,VALID,94.7424,VALID,0,VALID,23.4212,VALID,153,VALID,0.766406,
2008-04-30, 02:53:04,VALID,1007.45,VALID,0,VALID,94.7424,VALID,0,VALID,23.4212,VALID,157,VALID,0.751953,
2008-04-30, 02:54:04,VALID,1007.42,VALID,0,VALID,94.7957,VALID,0,VALID,23.4407,VALID,158,VALID,0.533984,
2008-04-30, 02:55:04,VALID,1007.41,VALID,0,VALID,94.811,VALID,0,VALID,23.4815,VALID,164,VALID,0.486719,
2008-04-30, 02:56:04,VALID,1007.41,VALID,0,VALID,94.8339,VALID,0,VALID,23.4212,VALID,152,VALID,0.213281,
2008-04-30, 02:57:04,VALID,1007.44,VALID,0,VALID,94.8873,VALID,0,VALID,23.4212,VALID,152,VALID,0.160547,
2008-04-30, 02:58:04,VALID,1007.45,VALID,0,VALID,94.9025,VALID,0,VALID,23.4212,VALID,152,VALID,0.00195313,
2008-04-30, 02:59:04,VALID,1007.52,VALID,0,VALID,94.9178,VALID,0,VALID,23.462,VALID,129,VALID,0.526953,
2008-04-30, 03:00:04,VALID,1007.49,VALID,0,VALID,94.933,VALID,0,VALID,23.462,VALID,129,VALID,0.436328,
2008-04-30, 03:01:04,VALID,1007.49,VALID,0,VALID,94.9178,VALID,0,VALID,23.4602,VALID,129,VALID,0.429297,
2008-04-30, 03:02:04,VALID,1007.49,VALID,0,VALID,94.9101,VALID,0,VALID,23.4602,VALID,129,VALID,0.310156,
2008-04-30, 03:03:04,VALID,1007.48,VALID,0,VALID,94.9178,VALID,0,VALID,23.5009,VALID,127,VALID,0.585547,
2008-04-30, 03:04:04,VALID,1007.48,VALID,0,VALID,94.9559,VALID,0,VALID,23.4992,VALID,127,VALID,0.442969,
2008-04-30, 03:05:04,VALID,1007.46,VALID,0,VALID,94.9101,VALID,0,VALID,23.5186,VALID,141,VALID,0.369531,
2008-04-30, 03:06:04,VALID,1007.44,VALID,0,VALID,94.933,VALID,0,VALID,23.5186,VALID,141,VALID,0.480469,
2008-04-30, 03:07:04,VALID,1007.47,VALID,0,VALID,94.8796,VALID,0,VALID,23.5594,VALID,141,VALID,0.585156,
2008-04-30, 03:08:04,VALID,1007.45,VALID,0,VALID,94.8186,VALID,0,VALID,23.5594,VALID,162,VALID,0.600391,
2008-04-30, 03:09:04,VALID,1007.44,VALID,0,VALID,94.8491,VALID,0,VALID,23.5381,VALID,154,VALID,0.487109,
2008-04-30, 03:10:04,VALID,1007.42,VALID,0,VALID,94.8415,VALID,0,VALID,23.5984,VALID,138,VALID,0.260938,
2008-04-30, 03:11:04,VALID,1007.43,VALID,0,VALID,94.8262,VALID,0,VALID,23.5789,VALID,138,VALID,0.300781,
2008-04-30, 03:12:04,VALID,1007.41,VALID,0,VALID,94.8568,VALID,0,VALID,23.5576,VALID,111,VALID,0.424609,
2008-04-30, 03:13:04,VALID,1007.41,VALID,0,VALID,94.8873,VALID,0,VALID,23.5789,VALID,106,VALID,0.68125,
2008-04-30, 03:14:04,VALID,1007.38,VALID,0,VALID,94.8568,VALID,0,VALID,23.6179,VALID,126,VALID,0.903516,
2008-04-30, 03:15:04,VALID,1007.36,VALID,0,VALID,94.9178,VALID,0,VALID,23.5984,VALID,115,VALID,0.627734,
2008-04-30, 03:16:04,VALID,1007.38,VALID,0,VALID,94.8796,VALID,0,VALID,23.5771,VALID,124,VALID,0.483984,
2008-04-30, 03:17:04,VALID,1007.34,VALID,0,VALID,94.8186,VALID,0,VALID,23.5771,VALID,141,VALID,0.700391,
2008-04-30, 03:18:04,VALID,1007.33,VALID,0,VALID,94.7805,VALID,0,VALID,23.5771,VALID,160,VALID,0.779297,
2008-04-30, 03:19:04,VALID,1007.32,VALID,0,VALID,94.7881,VALID,0,VALID,23.5984,VALID,155,VALID,0.655078,
2008-04-30, 03:20:04,VALID,1007.32,VALID,0,VALID,94.7652,VALID,0,VALID,23.5966,VALID,155,VALID,0.617188,
2008-04-30, 03:21:04,VALID,1007.33,VALID,0,VALID,94.7576,VALID,0,VALID,23.6179,VALID,146,VALID,0.201953,
2008-04-30, 03:22:04,VALID,1007.33,VALID,0,VALID,94.7271,VALID,0,VALID,23.6179,VALID,145,VALID,0.502344,
2008-04-30, 03:23:04,VALID,1007.33,VALID,0,VALID,94.7119,VALID,0,VALID,23.6179,VALID,144,VALID,0.456641,
2008-04-30, 03:24:04,VALID,1007.32,VALID,0,VALID,94.7119,VALID,0,VALID,23.6373,VALID,143,VALID,0.216016,
2008-04-30, 03:25:04,VALID,1007.35,VALID,0,VALID,94.7652,VALID,0,VALID,23.6161,VALID,143,VALID,0.366406,
2008-04-30, 03:26:04,VALID,1007.33,VALID,0,VALID,94.7195,VALID,0,VALID,23.5966,VALID,143,VALID,0.474219,
2008-04-30, 03:27:04,VALID,1007.32,VALID,0,VALID,94.75,VALID,0,VALID,23.6161,VALID,144,VALID,0.658594,
2008-04-30, 03:28:04,VALID,1007.32,VALID,0,VALID,94.7119,VALID,0,VALID,23.5966,VALID,154,VALID,0.682813,
2008-04-30, 03:29:04,VALID,1007.31,VALID,0,VALID,94.6966,VALID,0,VALID,23.6161,VALID,156,VALID,0.876562,
2008-04-30, 03:30:04,VALID,1007.32,VALID,0,VALID,94.7119,VALID,0,VALID,23.5966,VALID,161,VALID,0.696484,
2008-04-30, 03:31:04,VALID,1007.3,VALID,0,VALID,94.7195,VALID,0,VALID,23.5966,VALID,154,VALID,0.6125,
2008-04-30, 03:32:04,VALID,1007.27,VALID,0,VALID,94.7195,VALID,0,VALID,23.5984,VALID,155,VALID,0.865234,
2008-04-30, 03:33:04,VALID,1007.29,VALID,0,VALID,94.7881,VALID,0,VALID,23.5771,VALID,142,VALID,0.327734,
2008-04-30, 03:34:04,VALID,1007.31,VALID,0,VALID,94.8034,VALID,0,VALID,23.5984,VALID,144,VALID,0.491797,
2008-04-30, 03:35:04,VALID,1007.35,VALID,0,VALID,94.7805,VALID,0,VALID,23.6179,VALID,146,VALID,0.25,
2008-04-30, 03:36:04,VALID,1007.34,VALID,0,VALID,94.7805,VALID,0,VALID,23.5771,VALID,146,VALID,0.139062,
2008-04-30, 03:37:04,VALID,1007.38,VALID,0,VALID,94.7957,VALID,0,VALID,23.5771,VALID,146,VALID,0.196094,
2008-04-30, 03:38:04,VALID,1007.42,VALID,0,VALID,94.7881,VALID,0,VALID,23.5984,VALID,146,VALID,0,
2008-04-30, 03:39:04,VALID,1007.41,VALID,0,VALID,94.7652,VALID,0,VALID,23.5771,VALID,146,VALID,0.160156,
2008-04-30, 03:40:04,VALID,1007.41,VALID,0,VALID,94.7424,VALID,0,VALID,23.5594,VALID,146,VALID,0,
2008-04-30, 03:41:04,VALID,1007.41,VALID,0,VALID,94.7347,VALID,0,VALID,23.5789,VALID,146,VALID,0.375,
2008-04-30, 03:42:04,VALID,1007.41,VALID,0,VALID,94.7805,VALID,0,VALID,23.6179,VALID,148,VALID,0.602734,
2008-04-30, 03:43:04,VALID,1007.38,VALID,0,VALID,94.689,VALID,0,VALID,23.5789,VALID,150,VALID,0.408594,
2008-04-30, 03:44:04,VALID,1007.37,VALID,0,VALID,94.7042,VALID,0,VALID,23.5789,VALID,150,VALID,0.364844,
2008-04-30, 03:45:04,VALID,1007.33,VALID,0,VALID,94.6356,VALID,0,VALID,23.5789,VALID,150,VALID,0.414844,